Погода в Лампи

Греция     35°07′36″N   24°39′09″E
темп.,
°C
ветер,
м/с
пор.,
м/с
влажн.,
%
обл.,
%
осадки,
мм/ч
давл.,
гПа
погр.,
м
31 июля, сб
сб3100:00+25с23290 0.0 101131
03:00+25с33340 0.0 101038
06:00+24с23350 0.0 100929
09:00+31с35200 0.0 1010814
12:00+34с58150 0.0 10102097
15:00+35с58130 0.0 10092295
18:00+34с47130 0.0 10091705
21:00+27с22190 0.0 101022
1 августа, вс
вс100:00+27ссз22200 0.0 101022
03:00+26с22200 0.0 101017
06:00+26ссв22220 0.0 100912
09:00+33с22140 0.0 1010617
12:00+36с34120 0.0 10102486
15:00+37ссв34120 0.0 10092478
18:00+35с34160 0.0 10101724
21:00+28ссв22260 0.0 101020
2 августа, пн
пн200:00+27с22250 0.0 101123
03:00+26ссв33240 0.0 101126
06:00+25с33260 0.0 101128
09:00+31с36180 0.0 1011759
12:00+35с512160 0.0 10112125
15:00+35с612180 0.0 10102033
18:00+32с610230 0.0 10101312
21:00+27с33320 0.0 101146
3 августа, вт
вт300:00+26с22270 0.0 101132
03:00+25с34300 0.0 101153
06:00+25ссв44310 0.0 101148
09:00+32ссв615220 0.0 10111410
12:00+36ссв715150 0.0 10102143
15:00+37ссв614150 0.0 10102172
18:00+35ссв511170 0.0 10101558
21:00+29св33230 0.0 101128
4 августа, ср
ср400:00+28ссв33210 0.0 101226
03:00+27с33240 0.0 101137
06:00+26с44250 0.0 101154
09:00+33ссв46180 0.0 1011526
12:00+37с45130 0.0 10111416
15:00+37ссз45150 0.0 10102243
18:00+35с35160 0.0 10111190
21:00+28с22250 0.0 101224